CGAS EDDF-LOWI

Flight info

Callsign CGAS
Flight time 0h 57m
Altitude 41000
Route SULUS7S/18 SULUS Z650 NIKUS M736 RDG/N0481F280 M736 DOSEL/N0477F270 M736 TULSI TULSI3A
Aircraft C700/M-SBDGHM1RWXY/LB2

Departure

Time 2026-05-05 16:49
Airport Frankfurt Main Airport (EDDF)

Arrival

Time 2026-05-05 17:47
Airport Innsbruck Airport (LOWI)
Time Latitude Longitude Altitude Speed Heading
2026-05-05 16:16 50.03602 8.53725 340 ft 0 kts 160°
2026-05-05 16:45 50.03590 8.53732 337 ft 6 kts 160°
2026-05-05 16:45 50.03539 8.53759 339 ft 7 kts 174°
2026-05-05 16:45 50.03517 8.53724 338 ft 6 kts 246°
2026-05-05 16:45 50.03492 8.53621 340 ft 14 kts 249°
2026-05-05 16:46 50.03458 8.53478 339 ft 14 kts 250°
2026-05-05 16:46 50.03422 8.53331 339 ft 15 kts 249°
2026-05-05 16:46 50.03386 8.53179 339 ft 15 kts 250°
2026-05-05 16:46 50.03349 8.53019 339 ft 16 kts 250°
2026-05-05 16:47 50.03308 8.52855 339 ft 13 kts 250°
2026-05-05 16:47 50.03283 8.52746 338 ft 0 kts 250°
2026-05-05 16:48 50.03274 8.52709 336 ft 8 kts 250°
2026-05-05 16:48 50.03244 8.52621 340 ft 10 kts 236°
2026-05-05 16:48 50.03208 8.52595 340 ft 0 kts 180°
2026-05-05 16:49 50.03037 8.52595 340 ft 70 kts 179°
2026-05-05 16:49 50.02204 8.52613 406 ft 161 kts 180°
2026-05-05 16:49 50.00906 8.52679 1065 ft 210 kts 179°
2026-05-05 16:49 49.99327 8.52751 2005 ft 249 kts 181°
2026-05-05 16:50 49.97525 8.53393 2895 ft 287 kts 155°
2026-05-05 16:50 49.95919 8.55247 4226 ft 271 kts 134°
2026-05-05 16:50 49.94768 8.57628 4704 ft 284 kts 121°
2026-05-05 16:50 49.94146 8.60448 4826 ft 265 kts 104°
2026-05-05 16:51 49.93943 8.63182 5109 ft 259 kts 94°
2026-05-05 16:51 49.93819 8.66022 5641 ft 268 kts 103°
2026-05-05 16:51 49.93195 8.68762 6236 ft 271 kts 119°
2026-05-05 16:51 49.92108 8.71135 6794 ft 270 kts 135°
2026-05-05 16:52 49.90657 8.72971 7359 ft 269 kts 147°
2026-05-05 16:52 49.89149 8.74708 7932 ft 272 kts 140°
2026-05-05 16:52 49.87917 8.76969 8514 ft 278 kts 126°
2026-05-05 16:52 49.86939 8.79649 9134 ft 283 kts 121°
2026-05-05 16:53 49.85992 8.82283 9724 ft 285 kts 122°
2026-05-05 16:53 49.85001 8.84999 10280 ft 301 kts 122°
2026-05-05 16:53 49.83926 8.87948 10808 ft 330 kts 122°
2026-05-05 16:53 49.82732 8.91234 10843 ft 366 kts 121°
2026-05-05 16:54 49.81464 8.94741 10837 ft 378 kts 121°
2026-05-05 16:54 49.80177 8.98292 10837 ft 378 kts 121°
2026-05-05 16:54 49.78884 9.01838 10835 ft 379 kts 122°
2026-05-05 16:54 49.77588 9.05380 10837 ft 379 kts 122°
2026-05-05 16:55 49.76378 9.08986 10822 ft 377 kts 115°
2026-05-05 16:55 49.75611 9.12865 10821 ft 377 kts 105°
2026-05-05 16:55 49.74994 9.16811 10821 ft 379 kts 106°
2026-05-05 16:55 49.74359 9.20773 10823 ft 380 kts 106°
2026-05-05 16:56 49.73715 9.24722 10821 ft 379 kts 106°
2026-05-05 16:56 49.73081 9.28618 10818 ft 378 kts 106°
2026-05-05 16:56 49.72442 9.32562 10819 ft 377 kts 106°
2026-05-05 16:56 49.71805 9.36486 10820 ft 377 kts 106°
2026-05-05 16:57 49.71160 9.40417 10823 ft 378 kts 106°
2026-05-05 16:57 49.70515 9.44362 10820 ft 379 kts 106°
2026-05-05 16:57 49.69867 9.48312 10820 ft 379 kts 106°
2026-05-05 16:57 49.69221 9.52247 10816 ft 377 kts 106°
2026-05-05 16:58 49.68578 9.56147 10816 ft 374 kts 106°
2026-05-05 16:58 49.67935 9.60038 10815 ft 375 kts 106°
2026-05-05 16:58 49.67406 9.63954 11292 ft 367 kts 98°
2026-05-05 16:58 49.67344 9.67756 13699 ft 341 kts 90°
2026-05-05 16:59 49.67642 9.71293 15979 ft 335 kts 81°
2026-05-05 16:59 49.68244 9.74806 17309 ft 348 kts 77°
2026-05-05 16:59 49.68901 9.78443 18492 ft 356 kts 77°
2026-05-05 16:59 49.69554 9.82164 19543 ft 361 kts 77°
2026-05-05 17:00 49.70213 9.85935 20577 ft 366 kts 77°
2026-05-05 17:00 49.70891 9.89761 21557 ft 372 kts 77°
2026-05-05 17:00 49.71670 9.93604 22507 ft 380 kts 70°
2026-05-05 17:00 49.72930 9.97232 23443 ft 388 kts 59°
2026-05-05 17:01 49.74511 10.00658 24193 ft 394 kts 56°
2026-05-05 17:01 49.76120 10.04109 24998 ft 399 kts 57°
2026-05-05 17:01 49.77748 10.07628 25752 ft 405 kts 57°
2026-05-05 17:01 49.79387 10.11197 26539 ft 409 kts 58°
2026-05-05 17:02 49.81048 10.14801 27306 ft 413 kts 58°
2026-05-05 17:02 49.82706 10.18393 28040 ft 418 kts 58°
2026-05-05 17:02 49.84424 10.22128 28777 ft 422 kts 58°
2026-05-05 17:02 49.86110 10.25803 29499 ft 426 kts 58°
2026-05-05 17:03 49.87834 10.29566 30176 ft 431 kts 58°
2026-05-05 17:03 49.89580 10.33378 30875 ft 435 kts 58°
2026-05-05 17:03 49.91345 10.37236 31519 ft 441 kts 58°
2026-05-05 17:03 49.93128 10.41144 32145 ft 446 kts 58°
2026-05-05 17:04 49.94927 10.45091 32733 ft 451 kts 58°
2026-05-05 17:04 49.96747 10.49087 33351 ft 454 kts 58°
2026-05-05 17:04 49.98565 10.53082 34076 ft 452 kts 58°
2026-05-05 17:04 50.00383 10.57091 34637 ft 455 kts 58°
2026-05-05 17:05 50.02202 10.61126 35209 ft 454 kts 59°
2026-05-05 17:05 50.03727 10.65397 35777 ft 451 kts 69°
2026-05-05 17:05 50.04778 10.69965 36318 ft 448 kts 78°
2026-05-05 17:05 50.05346 10.74707 36827 ft 445 kts 88°
2026-05-05 17:06 50.05426 10.79492 37307 ft 441 kts 97°
2026-05-05 17:06 50.05027 10.84198 37765 ft 437 kts 106°
2026-05-05 17:06 50.04190 10.88727 38212 ft 435 kts 112°
2026-05-05 17:06 50.03235 10.93192 38600 ft 436 kts 112°
2026-05-05 17:07 50.02290 10.97665 38919 ft 437 kts 112°
2026-05-05 17:07 50.01351 11.02109 39202 ft 438 kts 112°
2026-05-05 17:07 50.00393 11.06604 39504 ft 439 kts 112°
2026-05-05 17:07 49.99424 11.11131 39655 ft 445 kts 112°
2026-05-05 17:08 49.98448 11.15697 40092 ft 442 kts 112°
2026-05-05 17:08 49.97484 11.20211 40420 ft 442 kts 112°
2026-05-05 17:08 49.96508 11.24751 40700 ft 443 kts 112°
2026-05-05 17:08 49.95542 11.29302 40998 ft 444 kts 111°
2026-05-05 17:09 49.94583 11.33865 41282 ft 445 kts 111°
2026-05-05 17:09 49.93614 11.38432 41553 ft 446 kts 111°
2026-05-05 17:09 49.92702 11.42969 41789 ft 448 kts 109°
2026-05-05 17:09 49.91859 11.47626 42032 ft 449 kts 108°
2026-05-05 17:10 49.91005 11.52285 42278 ft 450 kts 109°
2026-05-05 17:10 49.90141 11.56950 42544 ft 450 kts 109°
2026-05-05 17:10 49.89277 11.61626 42774 ft 452 kts 109°
2026-05-05 17:10 49.88412 11.66351 42764 ft 459 kts 107°
2026-05-05 17:11 49.87418 11.76296 42773 ft 473 kts 100°
2026-05-05 17:11 49.86173 11.86398 42767 ft 481 kts 111°
2026-05-05 17:12 49.83097 11.95598 42778 ft 484 kts 129°
2026-05-05 17:12 49.78311 12.02887 42781 ft 485 kts 148°
2026-05-05 17:13 49.72385 12.07655 42780 ft 477 kts 157°
2026-05-05 17:13 49.66950 12.13330 42769 ft 473 kts 144°
2026-05-05 17:14 49.61821 12.19665 42738 ft 473 kts 145°
2026-05-05 17:14 49.56649 12.26005 42746 ft 478 kts 144°
2026-05-05 17:15 49.51431 12.32411 42746 ft 481 kts 144°
2026-05-05 17:15 49.46209 12.38784 42752 ft 477 kts 144°
2026-05-05 17:16 49.41029 12.45101 42740 ft 474 kts 145°
2026-05-05 17:16 49.35588 12.50514 42739 ft 467 kts 158°
2026-05-05 17:17 49.29417 12.53362 42724 ft 463 kts 174°
2026-05-05 17:17 49.23011 12.53606 42742 ft 462 kts 185°
2026-05-05 17:18 49.16573 12.53289 42756 ft 462 kts 184°
2026-05-05 17:18 49.10168 12.52970 42756 ft 459 kts 185°
2026-05-05 17:19 49.03803 12.52646 42750 ft 456 kts 185°
2026-05-05 17:19 48.97522 12.52152 42755 ft 456 kts 185°
2026-05-05 17:20 48.91178 12.51683 42762 ft 458 kts 186°
2026-05-05 17:20 48.84812 12.51185 42765 ft 459 kts 185°
2026-05-05 17:21 48.78416 12.50703 42759 ft 461 kts 185°
2026-05-05 17:22 48.68788 12.49967 42765 ft 462 kts 185°
2026-05-05 17:22 48.62391 12.49483 42755 ft 460 kts 185°
2026-05-05 17:23 48.56057 12.49003 42757 ft 458 kts 185°
2026-05-05 17:23 48.49710 12.48431 42758 ft 455 kts 189°
2026-05-05 17:24 48.43667 12.45915 42760 ft 450 kts 205°
2026-05-05 17:24 48.38338 12.41021 42769 ft 450 kts 220°
2026-05-05 17:25 48.34376 12.35953 42695 ft 452 kts 221°
2026-05-05 17:25 48.32740 12.33876 42292 ft 459 kts 221°
2026-05-05 17:25 48.29500 12.29770 41491 ft 457 kts 221°
2026-05-05 17:25 48.27098 12.26713 40897 ft 450 kts 221°
2026-05-05 17:26 48.24725 12.23697 40321 ft 443 kts 221°
2026-05-05 17:26 48.22387 12.20736 39742 ft 436 kts 221°
2026-05-05 17:26 48.20084 12.17825 39176 ft 429 kts 221°
2026-05-05 17:26 48.17819 12.14962 38614 ft 422 kts 221°
2026-05-05 17:27 48.15597 12.12156 38007 ft 414 kts 221°
2026-05-05 17:27 48.13412 12.09401 37466 ft 407 kts 221°
2026-05-05 17:27 48.11254 12.06683 36931 ft 405 kts 221°
2026-05-05 17:27 48.09080 12.03948 36396 ft 412 kts 221°
2026-05-05 17:28 48.06894 12.01199 35858 ft 420 kts 220°
2026-05-05 17:28 48.04647 11.98380 35335 ft 424 kts 220°
2026-05-05 17:28 48.02389 11.95551 34738 ft 422 kts 220°
2026-05-05 17:28 48.00157 11.92756 34190 ft 416 kts 220°
2026-05-05 17:29 47.97956 11.90000 33617 ft 410 kts 220°
2026-05-05 17:29 47.95777 11.87278 33074 ft 408 kts 219°
2026-05-05 17:29 47.93585 11.84545 32530 ft 414 kts 219°
2026-05-05 17:29 47.91362 11.81746 31978 ft 422 kts 221°
2026-05-05 17:30 47.89309 11.78577 31420 ft 428 kts 228°
2026-05-05 17:30 47.87506 11.75030 30841 ft 431 kts 232°
2026-05-05 17:30 47.85771 11.71456 30302 ft 432 kts 232°
2026-05-05 17:30 47.83990 11.67838 29692 ft 434 kts 232°
2026-05-05 17:31 47.82219 11.64247 29135 ft 427 kts 232°
2026-05-05 17:31 47.80481 11.60699 28560 ft 420 kts 232°
2026-05-05 17:31 47.78773 11.57217 28011 ft 416 kts 232°
2026-05-05 17:31 47.77068 11.53760 27463 ft 413 kts 232°
2026-05-05 17:32 47.75369 11.50322 26930 ft 412 kts 232°
2026-05-05 17:32 47.73680 11.46898 26383 ft 410 kts 232°
2026-05-05 17:32 47.71998 11.43494 25850 ft 407 kts 232°
2026-05-05 17:32 47.70326 11.40116 25319 ft 404 kts 232°
2026-05-05 17:33 47.68684 11.36806 24793 ft 403 kts 232°
2026-05-05 17:33 47.67029 11.33471 24264 ft 401 kts 232°
2026-05-05 17:33 47.65383 11.30155 23739 ft 397 kts 232°
2026-05-05 17:33 47.63753 11.26877 23190 ft 393 kts 232°
2026-05-05 17:34 47.62136 11.23633 22662 ft 389 kts 232°
2026-05-05 17:34 47.60538 11.20429 22153 ft 386 kts 232°
2026-05-05 17:34 47.58948 11.17244 21643 ft 383 kts 233°
2026-05-05 17:34 47.57366 11.14078 21137 ft 382 kts 233°
2026-05-05 17:35 47.55787 11.10922 20636 ft 381 kts 233°
2026-05-05 17:35 47.54232 11.07819 20141 ft 380 kts 233°
2026-05-05 17:35 47.52663 11.04690 19646 ft 378 kts 233°
2026-05-05 17:35 47.51100 11.01576 19151 ft 375 kts 233°
2026-05-05 17:36 47.49552 10.98491 18656 ft 373 kts 233°
2026-05-05 17:36 47.48004 10.95420 18162 ft 371 kts 233°
2026-05-05 17:36 47.46476 10.92394 17640 ft 365 kts 234°
2026-05-05 17:36 47.44975 10.89415 17168 ft 359 kts 234°
2026-05-05 17:37 47.43486 10.86464 16703 ft 358 kts 233°
2026-05-05 17:37 47.41999 10.83520 16224 ft 358 kts 233°
2026-05-05 17:37 47.40534 10.80621 15759 ft 356 kts 233°
2026-05-05 17:37 47.39054 10.77700 15297 ft 354 kts 233°
2026-05-05 17:38 47.37582 10.74799 14832 ft 353 kts 233°
2026-05-05 17:38 47.36118 10.71911 14364 ft 351 kts 233°
2026-05-05 17:38 47.34661 10.69052 13908 ft 347 kts 233°
2026-05-05 17:38 47.33217 10.66201 13424 ft 346 kts 232°
2026-05-05 17:39 47.31459 10.63855 12936 ft 345 kts 210°
2026-05-05 17:39 47.29091 10.62971 12854 ft 367 kts 184°
2026-05-05 17:39 47.26577 10.63676 12836 ft 381 kts 160°
2026-05-05 17:39 47.24399 10.65901 12835 ft 387 kts 137°
2026-05-05 17:40 47.22961 10.69272 12831 ft 395 kts 114°
2026-05-05 17:40 47.22531 10.73269 12835 ft 401 kts 89°
2026-05-05 17:40 47.23208 10.77252 12841 ft 405 kts 66°
2026-05-05 17:40 47.24616 10.80830 12833 ft 404 kts 56°
2026-05-05 17:41 47.26185 10.84301 12860 ft 411 kts 56°
2026-05-05 17:41 47.27645 10.87812 12728 ft 385 kts 59°
2026-05-05 17:41 47.28839 10.91199 12256 ft 359 kts 65°
2026-05-05 17:41 47.29746 10.94480 12035 ft 332 kts 71°
2026-05-05 17:42 47.30313 10.97601 11740 ft 312 kts 82°
2026-05-05 17:42 47.30482 11.00776 11040 ft 310 kts 91°
2026-05-05 17:42 47.30476 11.03847 9980 ft 294 kts 93°
2026-05-05 17:42 47.30468 11.06854 8571 ft 291 kts 91°
2026-05-05 17:43 47.30577 11.09764 7802 ft 272 kts 87°
2026-05-05 17:43 47.30709 11.12624 7025 ft 286 kts 90°
2026-05-05 17:43 47.30166 11.15302 6623 ft 267 kts 122°
2026-05-05 17:43 47.29119 11.17530 5649 ft 266 kts 123°
2026-05-05 17:44 47.28257 11.19632 4943 ft 203 kts 120°
2026-05-05 17:44 47.27568 11.21342 4525 ft 192 kts 121°
2026-05-05 17:44 47.26943 11.23039 4174 ft 174 kts 118°
2026-05-05 17:44 47.26424 11.24489 3777 ft 153 kts 117°
2026-05-05 17:45 47.26010 11.25892 3440 ft 142 kts 114°
2026-05-05 17:45 47.25711 11.27214 3136 ft 132 kts 106°
2026-05-05 17:45 47.25560 11.28503 2814 ft 124 kts 98°
2026-05-05 17:45 47.25554 11.29711 2606 ft 112 kts 94°
2026-05-05 17:46 47.25646 11.30859 2387 ft 112 kts 90°
2026-05-05 17:46 47.25771 11.31981 2171 ft 109 kts 91°
2026-05-05 17:46 47.25886 11.33067 1957 ft 107 kts 89°
2026-05-05 17:46 47.25990 11.34044 1904 ft 83 kts 94°
2026-05-05 17:47 47.26046 11.34645 1900 ft 45 kts 82°
2026-05-05 17:47 47.26090 11.35024 1902 ft 29 kts 81°
2026-05-05 17:47 47.26104 11.35234 1901 ft 13 kts 118°
2026-05-05 17:47 47.26036 11.35265 1897 ft 9 kts 171°
2026-05-05 17:48 47.25973 11.35279 1901 ft 10 kts 170°
2026-05-05 17:48 47.25924 11.35320 1901 ft 8 kts 84°
2026-05-05 17:48 47.25921 11.35395 1892 ft 4 kts 163°
2026-05-05 17:48 47.25912 11.35374 1890 ft 0 kts 259°